TimeCDT,TemperatureF,Dew PointF,Humidity,Sea Level PressureIn,VisibilityMPH,Wind Direction,Wind SpeedMPH,Gust SpeedMPH,PrecipitationIn,Events,Conditions,WindDirDegrees,DateUTC
12:15 AM,73.4,66.2,78,30.05,10.0,SSW,5.8,-,N/A,,Clear,200,2013-08-22 05:15:00
12:35 AM,73.4,66.2,78,30.04,10.0,South,5.8,-,N/A,,Clear,180,2013-08-22 05:35:00
12:55 AM,71.6,66.2,83,30.04,10.0,SSW,8.1,-,N/A,,Clear,210,2013-08-22 05:55:00
1:15 AM,71.6,66.2,83,30.03,10.0,SW,5.8,-,N/A,,Clear,220,2013-08-22 06:15:00
1:35 AM,69.8,66.2,88,30.03,10.0,SW,6.9,-,N/A,,Clear,230,2013-08-22 06:35:00
1:55 AM,71.6,66.2,83,30.03,10.0,SW,5.8,-,N/A,,Clear,230,2013-08-22 06:55:00
2:15 AM,73.4,66.2,78,30.03,10.0,WSW,4.6,-,N/A,,Clear,240,2013-08-22 07:15:00
2:35 AM,71.6,66.2,83,30.03,10.0,SW,5.8,-,N/A,,Clear,220,2013-08-22 07:35:00
2:55 AM,71.6,66.2,83,30.04,10.0,WSW,3.5,-,N/A,,Clear,240,2013-08-22 07:55:00
3:15 AM,71.6,66.2,83,30.05,10.0,WSW,5.8,-,N/A,,Clear,240,2013-08-22 08:15:00
3:35 AM,73.4,64.4,73,30.04,10.0,WSW,5.8,-,N/A,,Clear,250,2013-08-22 08:35:00
3:55 AM,73.4,64.4,73,30.05,10.0,WSW,6.9,-,N/A,,Clear,240,2013-08-22 08:55:00
4:15 AM,71.6,66.2,83,30.05,10.0,SW,6.9,-,N/A,,Clear,230,2013-08-22 09:15:00
4:35 AM,71.6,66.2,83,30.04,10.0,WSW,5.8,-,N/A,,Clear,240,2013-08-22 09:35:00
4:55 AM,71.6,64.4,78,30.04,10.0,WSW,5.8,-,N/A,,Clear,250,2013-08-22 09:55:00
5:15 AM,71.6,64.4,78,30.04,10.0,WSW,5.8,-,N/A,,Clear,250,2013-08-22 10:15:00
5:35 AM,69.8,64.4,83,30.04,10.0,WSW,5.8,-,N/A,,Clear,240,2013-08-22 10:35:00
5:55 AM,69.8,64.4,83,30.05,10.0,West,5.8,-,N/A,,Clear,270,2013-08-22 10:55:00
6:15 AM,69.8,64.4,83,30.05,10.0,West,5.8,-,N/A,,Clear,270,2013-08-22 11:15:00
6:35 AM,69.8,66.2,88,30.05,10.0,WSW,5.8,-,N/A,,Clear,240,2013-08-22 11:35:00
6:55 AM,69.8,66.2,88,30.05,10.0,WSW,4.6,-,N/A,,Clear,240,2013-08-22 11:55:00
7:15 AM,71.6,66.2,83,30.06,10.0,West,5.8,-,N/A,,Clear,260,2013-08-22 12:15:00
7:35 AM,71.6,66.2,83,30.06,10.0,SW,3.5,-,N/A,,Clear,230,2013-08-22 12:35:00
7:55 AM,71.6,66.2,83,30.07,10.0,West,4.6,-,N/A,,Clear,260,2013-08-22 12:55:00
8:15 AM,71.6,66.2,83,30.08,10.0,NW,5.8,-,N/A,,Scattered Clouds,320,2013-08-22 13:15:00
8:35 AM,71.6,66.2,83,30.09,10.0,North,11.5,-,N/A,,Clear,350,2013-08-22 13:35:00
8:55 AM,73.4,66.2,78,30.09,10.0,NNE,5.8,-,N/A,,Clear,20,2013-08-22 13:55:00
9:15 AM,71.6,66.2,83,30.11,10.0,North,8.1,-,N/A,,Clear,360,2013-08-22 14:15:00
9:35 AM,71.6,64.4,78,30.11,10.0,North,5.8,-,N/A,,Clear,10,2013-08-22 14:35:00
9:55 AM,71.6,64.4,78,30.12,10.0,NNE,6.9,-,N/A,,Partly Cloudy,30,2013-08-22 14:55:00
10:15 AM,71.6,64.4,78,30.16,10.0,North,13.8,-,N/A,,Scattered Clouds,350,2013-08-22 15:15:00